TimeEDT,TemperatureF,Dew PointF,Humidity,Sea Level PressureIn,VisibilityMPH,Wind Direction,Wind SpeedMPH,Gust SpeedMPH,PrecipitationIn,Events,Conditions,WindDirDegrees,DateUTC
12:15 AM,50.0,50.0,100,30.15,10.0,Calm,Calm,-,N/A,,Clear,0,2012-10-22 04:15:00
1:15 AM,48.2,48.2,100,30.15,10.0,Calm,Calm,-,N/A,,Clear,0,2012-10-22 05:15:00
1:35 AM,48.2,48.2,100,30.15,10.0,Calm,Calm,-,N/A,,Clear,0,2012-10-22 05:35:00
1:55 AM,48.2,48.2,100,30.15,10.0,Calm,Calm,-,N/A,,Clear,0,2012-10-22 05:55:00
2:15 AM,46.4,46.4,100,30.15,10.0,Calm,Calm,-,N/A,,Clear,0,2012-10-22 06:15:00
2:35 AM,46.4,46.4,100,30.15,10.0,Calm,Calm,-,N/A,,Clear,0,2012-10-22 06:35:00
2:55 AM,46.4,46.4,100,30.14,10.0,Calm,Calm,-,N/A,,Clear,0,2012-10-22 06:55:00
3:15 AM,46.4,46.4,100,30.15,10.0,Calm,Calm,-,N/A,,Clear,0,2012-10-22 07:15:00
3:35 AM,46.4,46.4,100,30.15,10.0,Calm,Calm,-,N/A,,Clear,0,2012-10-22 07:35:00
3:55 AM,46.4,46.4,100,30.15,10.0,Calm,Calm,-,N/A,,Clear,0,2012-10-22 07:55:00
4:15 AM,44.6,44.6,100,30.15,10.0,Calm,Calm,-,N/A,,Clear,0,2012-10-22 08:15:00
4:35 AM,44.6,44.6,100,30.14,10.0,Calm,Calm,-,N/A,,Clear,0,2012-10-22 08:35:00
5:15 AM,44.6,44.6,100,30.15,10.0,Calm,Calm,-,N/A,,Clear,0,2012-10-22 09:15:00
5:55 AM,44.6,44.6,100,30.16,10.0,Calm,Calm,-,N/A,,Clear,0,2012-10-22 09:55:00
6:15 AM,44.6,44.6,100,30.17,10.0,Calm,Calm,-,N/A,,Clear,0,2012-10-22 10:15:00
6:35 AM,44.6,44.6,100,30.18,10.0,Calm,Calm,-,N/A,,Clear,0,2012-10-22 10:35:00
6:55 AM,44.6,44.6,100,30.19,10.0,Calm,Calm,-,N/A,,Clear,0,2012-10-22 10:55:00
7:15 AM,42.8,42.8,100,30.20,10.0,Calm,Calm,-,N/A,,Clear,0,2012-10-22 11:15:00
7:35 AM,42.8,42.8,100,30.21,10.0,Calm,Calm,-,N/A,,Clear,0,2012-10-22 11:35:00
8:15 AM,44.6,44.6,100,30.22,10.0,Calm,Calm,-,N/A,,Clear,0,2012-10-22 12:15:00
8:55 AM,50.0,50.0,100,30.22,10.0,Calm,Calm,-,N/A,,Clear,0,2012-10-22 12:55:00
9:15 AM,53.6,53.6,100,30.23,10.0,Calm,Calm,-,N/A,,Clear,0,2012-10-22 13:15:00
9:35 AM,59.0,55.4,88,30.23,10.0,Calm,Calm,-,N/A,,Clear,0,2012-10-22 13:35:00
9:55 AM,62.6,53.6,72,30.23,10.0,ENE,4.6,-,N/A,,Clear,70,2012-10-22 13:55:00
10:15 AM,66.2,53.6,64,30.23,10.0,East,3.5,-,N/A,,Clear,90,2012-10-22 14:15:00
10:35 AM,68.0,53.6,60,30.23,10.0,ENE,4.6,-,N/A,,Clear,60,2012-10-22 14:35:00
10:55 AM,69.8,51.8,53,30.23,10.0,ENE,5.8,-,N/A,,Clear,70,2012-10-22 14:55:00
11:15 AM,71.6,51.8,50,30.23,10.0,East,6.9,-,N/A,,Clear,90,2012-10-22 15:15:00
11:35 AM,73.4,51.8,47,30.23,10.0,East,9.2,-,N/A,,Clear,90,2012-10-22 15:35:00
11:55 AM,73.4,48.2,41,30.22,10.0,East,6.9,-,N/A,,Clear,80,2012-10-22 15:55:00
12:15 PM,75.2,50.0,41,30.22,10.0,ESE,6.9,-,N/A,,Clear,120,2012-10-22 16:15:00
12:35 PM,75.2,48.2,38,30.21,10.0,ENE,10.4,-,N/A,,Clear,70,2012-10-22 16:35:00
12:55 PM,77.0,48.2,36,30.21,10.0,ENE,8.1,-,N/A,,Clear,70,2012-10-22 16:55:00
1:15 PM,77.0,48.2,36,30.20,10.0,ENE,9.2,-,N/A,,Clear,70,2012-10-22 17:15:00
1:35 PM,77.0,50.0,39,30.19,10.0,East,9.2,-,N/A,,Clear,90,2012-10-22 17:35:00
1:55 PM,77.0,50.0,39,30.18,10.0,ENE,8.1,-,N/A,,Clear,70,2012-10-22 17:55:00
2:15 PM,77.0,48.2,36,30.17,10.0,ENE,6.9,-,N/A,,Clear,60,2012-10-22 18:15:00
2:55 PM,78.8,46.4,32,30.15,10.0,ENE,4.6,-,N/A,,Clear,60,2012-10-22 18:55:00
3:15 PM,78.8,48.2,34,30.14,10.0,ESE,5.8,-,N/A,,Clear,110,2012-10-22 19:15:00
3:35 PM,78.8,48.2,34,30.14,10.0,East,8.1,-,N/A,,Clear,90,2012-10-22 19:35:00
3:55 PM,78.8,50.0,36,30.13,10.0,East,6.9,-,N/A,,Clear,100,2012-10-22 19:55:00
4:15 PM,78.8,48.2,34,30.13,10.0,ESE,4.6,-,N/A,,Clear,110,2012-10-22 20:15:00
4:35 PM,78.8,48.2,34,30.13,10.0,ENE,8.1,-,N/A,,Clear,60,2012-10-22 20:35:00
4:55 PM,77.0,48.2,36,30.13,10.0,SE,4.6,-,N/A,,Clear,130,2012-10-22 20:55:00
5:15 PM,77.0,48.2,36,30.13,10.0,East,5.8,-,N/A,,Clear,90,2012-10-22 21:15:00
5:35 PM,77.0,48.2,36,30.13,10.0,Calm,Calm,-,N/A,,Clear,0,2012-10-22 21:35:00
5:55 PM,73.4,51.8,47,30.13,10.0,East,3.5,-,N/A,,Clear,100,2012-10-22 21:55:00
6:15 PM,71.6,51.8,50,30.14,10.0,ESE,4.6,-,N/A,,Clear,120,2012-10-22 22:15:00
6:35 PM,68.0,55.4,64,30.14,10.0,ESE,3.5,-,N/A,,Clear,120,2012-10-22 22:35:00
6:55 PM,64.4,55.4,73,30.15,10.0,Calm,Calm,-,N/A,,Clear,0,2012-10-22 22:55:00
7:15 PM,62.6,55.4,77,30.15,10.0,Calm,Calm,-,N/A,,Clear,0,2012-10-22 23:15:00
7:35 PM,60.8,53.6,77,30.15,10.0,Calm,Calm,-,N/A,,Clear,0,2012-10-22 23:35:00
7:55 PM,60.8,53.6,77,30.16,10.0,Calm,Calm,-,N/A,,Clear,0,2012-10-22 23:55:00
8:15 PM,59.0,53.6,82,30.16,10.0,Calm,Calm,-,N/A,,Clear,0,2012-10-23 00:15:00
8:35 PM,57.2,53.6,88,30.17,10.0,Calm,Calm,-,N/A,,Clear,0,2012-10-23 00:35:00
8:55 PM,55.4,53.6,94,30.18,10.0,Calm,Calm,-,N/A,,Clear,0,2012-10-23 00:55:00
9:15 PM,55.4,53.6,94,30.18,10.0,Calm,Calm,-,N/A,,Clear,0,2012-10-23 01:15:00
9:35 PM,53.6,53.6,100,30.18,10.0,Calm,Calm,-,N/A,,Clear,0,2012-10-23 01:35:00
9:55 PM,53.6,53.6,100,30.19,10.0,Calm,Calm,-,N/A,,Clear,0,2012-10-23 01:55:00
10:55 PM,51.8,51.8,100,30.20,10.0,Calm,Calm,-,N/A,,Clear,0,2012-10-23 02:55:00
11:15 PM,51.8,51.8,100,30.20,10.0,Calm,Calm,-,N/A,,Clear,0,2012-10-23 03:15:00
11:35 PM,50.0,50.0,100,30.20,10.0,Calm,Calm,-,N/A,,Clear,0,2012-10-23 03:35:00
11:55 PM,50.0,50.0,100,30.19,10.0,Calm,Calm,-,N/A,,Clear,0,2012-10-23 03:55:00